Regional Weather Roundup
Issued by NWS

Home | Current Version | Previous Version | Text Only | Print | Product List | Glossary Off
Versions: 1 2 3 4 5 6 7 8 9 10 11 12 13 14 15 16 17 18 19 20 21 22 23 24 25 26 27 28 29 30 31 32 33 34 35 36 37 38 39 40 41 42 43 44 45 46 47 48 49 50

000
ASUS43 KMPX 200110
RWRMN
WEATHER ROUNDUP FOR MINNESOTA
NATIONAL WEATHER SERVICE TWIN CITIES/CHANHASSEN MN
700 PM CST SUN FEB 19 2017


NOTE: "FAIR" INDICATES FEW OR NO CLOUDS BELOW 12,000 FEET WITH NO
SIGNIFICANT WEATHER AND/OR OBSTRUCTIONS TO VISIBILITY. N/A MEANS
CURRENT SKY AND/OR WEATHER CONDITIONS ARE NOT AVAILABLE.

MNZ060>063-068>070-200200-
   Twin Cities Metro

CITY           SKY/WX    TMP DP  RH WIND       PRES   REMARKS
TWIN CITIES    CLOUDY    53  39  59 SE16      29.88S
ST PAUL        CLOUDY    51  39  63 SE13      29.89S
CRYSTAL        CLOUDY    64  38  38 SE14      29.85F
BLAINE         CLOUDY    55  39  54 SE13G20   29.87S
LAKEVILLE      PTCLDY    41  39  93 E6        29.88F
EDEN PRAIRIE   MOCLDY    52  42  69 SE10      29.85F
SOUTH ST PAUL  MOCLDY    53  37  54 SE6       29.89S
LAKE ELMO      FAIR      52  37  58 SE9       29.90S
$$
MNZ001>005-007-008-013>017-022>024-027-028-200200-
   Northwest Minnesota

CITY           SKY/WX    TMP DP  RH WIND       PRES   REMARKS
BEMIDJI        PTCLDY    43  32  63 SE14      29.75S
HALLOCK        CLOUDY    45  34  65 E13       29.65S
ROSEAU         CLOUDY    39  32  75 E9        29.73R
WARROAD        PTCLDY    37  34  87 E12       29.76R
THIEF RVR FALL CLOUDY    41  33  73 SE17      29.69R
CROOKSTON      CLOUDY    43  36  75 SE16      29.65S
FOSSTON        PTCLDY    45  34  65 SE16G24   29.69R
DETROIT LAKES  CLOUDY    46  37  71 SE17      29.71R
MOORHEAD       CLOUDY    48  43  81 SE16G23   29.65S
PARK RAPIDS    CLOUDY    48  32  53 SE9       29.74S
MAHNOMEN       FAIR      44  35  70 SE12G18   29.68S
$$
MNZ006-009>011-018-025>026-200200-
   North Central Minnesota

CITY           SKY/WX    TMP DP  RH WIND       PRES   REMARKS
BAUDETTE       PTCLDY    40  30  67 E15       29.77F
FLAG ISLAND    CLOUDY    41  28  60 E13G20    29.77F
INTL FALLS     CLOUDY    41  30  65 E12       29.85S
WASKISH        PTCLDY    46  30  53 E13       29.76F
BIG FORK       CLOUDY    46  30  53 SE7       29.83S
LONGVILLE      MOCLDY    46  30  53 SE9       29.80R
GRAND RAPIDS   PTCLDY    42  30  62 SE10G16   29.86S
CRANE LAKE     MOCLDY    41  28  60 CALM      29.93R
ORR            PTCLDY    45  27  49 CALM      29.85F
COOK           PTCLDY    43  28  56 SE6       29.89F
WALKER         FAIR      45  32  60 SE6       29.77R
$$
MNZ012-019>021-037-200200-
   Northeast Minnesota

CITY           SKY/WX    TMP DP  RH WIND       PRES   REMARKS
DULUTH         PTCLDY    38  30  73 E18G26    29.95R
ELY            CLOUDY    37  28  70 SE12      29.95R
HIBBING        PTCLDY    39  29  67 SE17G23   29.89F
EVELETH        PTCLDY    40  27  59 E7        29.93S
DULUTH HARBOR  MOCLDY    36  34  93 NE20      29.99S
TWO HARBORS    CLOUDY    39  30  70 E13G18    29.98R
GRAND MARAIS     N/A     37  28  70 NE15G21   30.07R
G MARAIS ARPRT PTCLDY    30  23  74 E8        30.03R WCI  23
$$
MNZ029>031-032-039>041-046>048-054>057-064-200200-
   West Central Minnesota

CITY           SKY/WX    TMP DP  RH WIND       PRES   REMARKS
FERGUS FALLS   CLOUDY    50  45  81 SE20G25   29.71S
WHEATON        PTCLDY    50  46  87 SE20      29.68R
MORRIS         PTCLDY    52  48  87 SE18      29.69R
ALEXANDRIA     PTCLDY    49  43  80 SE17G23   29.75R
ELBOW LAKE     FAIR      49  46  87 E15       29.70R
WADENA         CLOUDY    46  37  71 SE12      29.74S
GLENWOOD       PTCLDY    48  45  87 SE13      29.76R
APPLETON       PTCLDY    55  50  82 SE12G17   29.70R
BENSON         CLOUDY    55  46  71 S16G23    29.73S
ORTONVILLE     CLOUDY    52  46  82 SE13      29.67S
WILLMAR        FAIR      52  48  87 CALM      29.77R
$$
MNZ033>034-036-042>043-049>051-058-059-200200-
   Central Minnesota

CITY           SKY/WX    TMP DP  RH WIND       PRES   REMARKS
ST CLOUD       CLOUDY    52  41  66 SE9       29.82S
SAUK CENTRE    FAIR      49  42  76 E14G20    29.77R
PAYNESVILLE    MOCLDY    51  44  76 SE15      29.79R
AITKIN         PTCLDY    48  28  46 E6        29.83R
PINE RIVER     CLOUDY    48  36  61 SE14      29.82S
BRAINERD       PTCLDY    49  36  61 SE14      29.80F
STAPLES        CLOUDY    48  36  61 SE9       29.77R
LONG PRAIRIE   FAIR      48  39  71 E10G16    29.78R
LITTLE FALLS   PTCLDY    50  36  57 SE12G21   29.80S
LITCHFIELD     CLOUDY    54  46  76 SE13      29.81R
BUFFALO        CLOUDY    52  42  67 E12       29.84R
MAPLE LAKE     PTCLDY    51  44  77 SE10      29.83S
HUTCHINSON     CLOUDY    51  47  86 SE10      29.82S
$$
MNZ037-044-045-052-053-200200-
   East Central Minnesota

CITY           SKY/WX    TMP DP  RH WIND       PRES   REMARKS
PRINCETON      CLOUDY    54  39  58 SE9       29.85S
MORA           CLOUDY    45  34  65 E6        29.89S
CAMBRIDGE      CLOUDY    54  37  54 SE8       29.85S
RUSH CITY      CLOUDY    50  36  57 SE8       29.88S
MOOSE LAKE     CLOUDY    36  32  87 NE6       29.90R
HINCKLEY       FAIR      50  34  53 E6        29.89S
CLOQUET        PTCLDY    37  28  70 E9G18     29.93S
MCGREGOR       CLOUDY    41  32  70 E9        29.87S
$$
MNZ071>073-080-081-089-090-097-098-200200-
   Southwest Minnesota

CITY           SKY/WX    TMP DP  RH WIND       PRES   REMARKS
MONTEVIDEO     CLOUDY    55  52  88 S18       29.72S
GRANITE FALLS  CLOUDY    56  52  85 SE14      29.75R
CANBY          PTCLDY    56  49  75 SE13      29.70R
MARSHALL       PTCLDY    54  50  86 S17       29.73R
REDWOOD FALLS  CLOUDY    54  49  83 SE16      29.76S
OLIVIA         CLOUDY    54  50  87 SE15      29.76S
PIPESTONE      PTCLDY    55  46  71 S15       29.73R
WINDOM         MOCLDY    55  50  82 SE13      29.79R
WORTHINGTON    CLOUDY    55  48  77 S14       29.78R
JACKSON        CLOUDY    52  46  82 SE9       29.81R
TRACY          PTCLDY    55  51  87 S14       29.75R
SLAYTON        PTCLDY    51  48  89 SE15      29.77R
$$
MNZ065>067-074>077-082>085-091>093-200200-
   South Central Minnesota

CITY           SKY/WX    TMP DP  RH WIND       PRES   REMARKS
MANKATO          N/A     51  45  79 SE17      29.83F
NEW ULM        PTCLDY    55  48  76 SE18G25   29.80R
ST JAMES       MOCLDY    54  50  87 SE12      29.82R
FAIRMONT       MOCLDY    54  50  86 SE14      29.82R
GLENCOE        PTCLDY    51  48  89 E13       29.82S
FARIBAULT      PTCLDY    52  45  76 SE10      29.88S
OWATONNA       CLOUDY    50  43  76 SE13      29.88S
WASECA         CLOUDY    52  45  76 SE13      29.88S
ALBERT LEA     CLOUDY    52  45  76 SE9       29.88S
$$
MNZ078>079-086>088-094>096-200200-
   Southeast Minnesota

CITY           SKY/WX    TMP DP  RH WIND       PRES   REMARKS
ROCHESTER      CLOUDY    46  40  79 SE14      29.92F
RED WING       MOCLDY    52  36  54 SE8       29.91S
STANTON        CLOUDY    54  42  63 SE10G18   29.87F
DODGE CENTER   CLOUDY    46  39  76 SE14      29.90F
WINONA         PTCLDY    50  34  53 S3        29.96R
AUSTIN         PTCLDY    46  43  87 SE12      29.90S
PRESTON        CLOUDY    49  39  69 SE8       29.94S
$$
ABBREVIATIONS USED IN REMARKS
   TC - TEMPERATURES IN CELSIUS
  WCI - WIND CHILL INDEX
   HX - HEAT INDEX
  VSB - VISIBILITY
$$



USA.gov is the U.S. government's official web portal to all federal, state and local government web resources and services.